TimeEST,TemperatureF,Dew PointF,Humidity,Sea Level PressureIn,VisibilityMPH,Wind Direction,Wind SpeedMPH,Gust SpeedMPH,PrecipitationIn,Events,Conditions,WindDirDegrees,DateUTC
12:11 AM,30.2,21.2,69,30.06,10.0,WSW,16.1,23.0,N/A,,Overcast,240,2013-01-04 05:11:00
12:31 AM,28.4,21.2,74,30.05,10.0,WSW,15.0,25.3,N/A,,Overcast,250,2013-01-04 05:31:00
12:51 AM,30.2,21.2,69,30.04,10.0,WSW,20.7,25.3,N/A,,Overcast,250,2013-01-04 05:51:00
1:11 AM,30.2,21.2,69,30.04,10.0,WSW,18.4,25.3,N/A,,Overcast,250,2013-01-04 06:11:00
1:32 AM,30.2,21.2,69,30.03,10.0,WSW,17.3,23.0,N/A,,Overcast,240,2013-01-04 06:32:00
1:52 AM,30.2,23.0,75,30.03,10.0,WSW,16.1,24.2,N/A,,Overcast,250,2013-01-04 06:52:00
2:34 AM,30.2,23.0,75,30.02,10.0,WSW,17.3,24.2,N/A,,Overcast,250,2013-01-04 07:34:00
2:54 AM,30.2,23.0,75,30.01,10.0,WSW,18.4,24.2,N/A,,Scattered Clouds,240,2013-01-04 07:54:00
3:09 AM,30.2,23.0,75,30.01,10.0,WSW,15.0,23.0,N/A,,Scattered Clouds,240,2013-01-04 08:09:00
3:32 AM,28.4,23.0,80,30.00,10.0,SW,18.4,24.2,N/A,,Clear,230,2013-01-04 08:32:00
3:52 AM,28.4,23.0,80,30.00,10.0,WSW,17.3,-,N/A,,Clear,240,2013-01-04 08:52:00
4:12 AM,28.4,23.0,80,30.01,10.0,WSW,15.0,20.7,N/A,,Scattered Clouds,240,2013-01-04 09:12:00
4:32 AM,28.4,23.0,80,30.00,10.0,WSW,17.3,25.3,N/A,,Scattered Clouds,240,2013-01-04 09:32:00
4:52 AM,28.4,21.2,74,29.99,10.0,WSW,19.6,27.6,N/A,,Clear,240,2013-01-04 09:52:00
5:12 AM,28.4,21.2,74,29.98,10.0,WSW,17.3,24.2,N/A,,Clear,240,2013-01-04 10:12:00
5:32 AM,28.4,21.2,74,29.98,10.0,SW,17.3,25.3,N/A,,Clear,230,2013-01-04 10:32:00
5:52 AM,28.4,21.2,74,29.97,10.0,SW,21.9,27.6,N/A,,Clear,230,2013-01-04 10:52:00
6:33 AM,28.4,21.2,74,29.97,10.0,WSW,19.6,26.5,N/A,,Clear,240,2013-01-04 11:33:00
6:53 AM,28.4,23.0,80,29.97,10.0,SW,18.4,25.3,N/A,,Clear,230,2013-01-04 11:53:00
7:13 AM,28.4,21.2,74,29.98,10.0,WSW,16.1,24.2,N/A,,Clear,240,2013-01-04 12:13:00
7:33 AM,28.4,21.2,74,29.99,10.0,WSW,13.8,23.0,N/A,,Clear,240,2013-01-04 12:33:00
8:13 AM,28.4,21.2,74,29.99,10.0,WSW,16.1,26.5,N/A,,Clear,240,2013-01-04 13:13:00
8:33 AM,28.4,21.2,74,29.98,10.0,WSW,19.6,25.3,N/A,,Clear,240,2013-01-04 13:33:00
8:53 AM,28.4,21.2,74,29.97,10.0,WSW,19.6,28.8,N/A,,Clear,240,2013-01-04 13:53:00
9:14 AM,28.4,21.2,74,29.97,10.0,WSW,19.6,32.2,N/A,,Clear,240,2013-01-04 14:14:00
9:34 AM,28.4,21.2,74,29.98,10.0,WSW,21.9,28.8,N/A,,Scattered Clouds,250,2013-01-04 14:34:00
9:54 AM,28.4,21.2,74,29.98,10.0,WSW,18.4,27.6,N/A,,Scattered Clouds,240,2013-01-04 14:54:00
10:14 AM,30.2,23.0,75,29.98,10.0,WSW,21.9,26.5,N/A,,Clear,240,2013-01-04 15:14:00
10:34 AM,30.2,23.0,75,29.98,10.0,SW,24.2,-,N/A,,Clear,230,2013-01-04 15:34:00
10:54 AM,30.2,23.0,75,29.98,10.0,WSW,24.2,28.8,N/A,,Clear,240,2013-01-04 15:54:00
11:14 AM,32.0,23.0,69,29.96,10.0,SW,20.7,32.2,N/A,,Clear,230,2013-01-04 16:14:00
11:34 AM,32.0,23.0,69,29.94,10.0,SW,23.0,28.8,N/A,,Clear,230,2013-01-04 16:34:00
11:54 AM,32.0,23.0,69,29.95,10.0,WSW,20.7,33.4,N/A,,Clear,240,2013-01-04 16:54:00
12:14 PM,32.0,23.0,69,29.95,10.0,SW,17.3,27.6,N/A,,Clear,230,2013-01-04 17:14:00
12:35 PM,32.0,23.0,69,29.95,10.0,WSW,19.6,25.3,N/A,,Clear,250,2013-01-04 17:35:00
12:55 PM,32.0,23.0,69,29.94,10.0,WSW,21.9,28.8,N/A,,Scattered Clouds,240,2013-01-04 17:55:00
1:15 PM,33.8,24.8,70,29.94,10.0,WSW,17.3,26.5,N/A,,Scattered Clouds,250,2013-01-04 18:15:00
1:35 PM,33.8,24.8,70,29.93,10.0,WSW,17.3,28.8,N/A,,Scattered Clouds,240,2013-01-04 18:35:00
1:55 PM,33.8,24.8,70,29.93,10.0,WSW,15.0,27.6,N/A,,Scattered Clouds,240,2013-01-04 18:55:00
2:15 PM,33.8,24.8,70,29.93,10.0,WSW,18.4,26.5,N/A,,Clear,240,2013-01-04 19:15:00
2:35 PM,33.8,26.6,75,29.92,10.0,WSW,18.4,24.2,N/A,,Scattered Clouds,250,2013-01-04 19:35:00
2:55 PM,33.8,24.8,70,29.93,10.0,West,20.7,26.5,N/A,,Scattered Clouds,260,2013-01-04 19:55:00
3:15 PM,33.8,24.8,70,29.93,10.0,WSW,17.3,25.3,N/A,,Scattered Clouds,250,2013-01-04 20:15:00
3:35 PM,33.8,24.8,70,29.94,10.0,WSW,26.5,31.1,N/A,,Clear,250,2013-01-04 20:35:00
3:50 PM,33.8,24.8,70,29.95,10.0,WSW,26.5,35.7,N/A,,Clear,250,2013-01-04 20:50:00
4:11 PM,32.0,24.8,75,29.95,10.0,WSW,21.9,32.2,N/A,,Clear,250,2013-01-04 21:11:00
4:31 PM,32.0,24.8,75,29.97,10.0,West,20.7,28.8,N/A,,Clear,260,2013-01-04 21:31:00
4:51 PM,32.0,24.8,75,29.97,10.0,West,17.3,26.5,N/A,,Clear,260,2013-01-04 21:51:00
5:11 PM,32.0,23.0,69,29.98,10.0,WSW,17.3,26.5,N/A,,Clear,250,2013-01-04 22:11:00
5:31 PM,32.0,23.0,69,29.99,10.0,West,18.4,25.3,N/A,,Clear,260,2013-01-04 22:31:00
5:51 PM,32.0,23.0,69,30.00,10.0,West,17.3,25.3,N/A,,Clear,260,2013-01-04 22:51:00
6:11 PM,32.0,23.0,69,30.00,10.0,WSW,16.1,26.5,N/A,,Clear,250,2013-01-04 23:11:00
6:31 PM,30.2,23.0,75,30.01,10.0,West,15.0,24.2,N/A,,Clear,260,2013-01-04 23:31:00
6:51 PM,30.2,23.0,75,30.02,10.0,West,16.1,23.0,N/A,,Clear,260,2013-01-04 23:51:00
7:11 PM,30.2,23.0,75,30.03,10.0,WSW,16.1,19.6,N/A,,Clear,250,2013-01-05 00:11:00
7:32 PM,30.2,23.0,75,30.04,10.0,WSW,13.8,-,N/A,,Clear,250,2013-01-05 00:32:00
7:52 PM,30.2,23.0,75,30.06,10.0,West,15.0,20.7,N/A,,Clear,260,2013-01-05 00:52:00
8:12 PM,30.2,23.0,75,30.07,10.0,West,13.8,19.6,N/A,,Clear,260,2013-01-05 01:12:00
8:32 PM,30.2,23.0,75,30.07,10.0,West,13.8,-,N/A,,Clear,260,2013-01-05 01:32:00
8:52 PM,30.2,23.0,75,30.08,10.0,West,15.0,20.7,N/A,,Clear,260,2013-01-05 01:52:00
9:12 PM,28.4,23.0,80,30.08,10.0,West,13.8,-,N/A,,Clear,270,2013-01-05 02:12:00
9:32 PM,28.4,23.0,80,30.09,10.0,West,11.5,-,N/A,,Clear,260,2013-01-05 02:32:00
9:52 PM,28.4,23.0,80,30.09,10.0,West,12.7,-,N/A,,Clear,260,2013-01-05 02:52:00
10:12 PM,30.2,23.0,75,30.09,10.0,West,11.5,17.3,N/A,,Clear,260,2013-01-05 03:12:00
10:32 PM,28.4,23.0,80,30.10,10.0,West,11.5,17.3,N/A,,Clear,260,2013-01-05 03:32:00
10:53 PM,28.4,23.0,80,30.11,10.0,WSW,9.2,-,N/A,,Clear,250,2013-01-05 03:53:00
11:13 PM,28.4,23.0,80,30.12,10.0,West,10.4,-,N/A,,Clear,260,2013-01-05 04:13:00
11:33 PM,28.4,23.0,80,30.13,10.0,WSW,10.4,-,N/A,,Clear,250,2013-01-05 04:33:00
11:53 PM,28.4,23.0,80,30.14,10.0,WSW,9.2,-,N/A,,Clear,240,2013-01-05 04:53:00